This demonstration page uses our WeatherBlox Daily Observations layout. Learn more.

Left ArrowRight Arrow

Hourly Observations for September 30, 2017

Temp ( °F °C ) Dew Point ( °F °C ) Humidity (%) Winds ( mph kmh ) Pressure ( in mb ) Visibility ( mi km ) Precip ( " mm )
12:53 am 00:53 Clear 60 15.6 44 6.7 56 56 Calm 29.88 1012 10 16 0.00 0.00
1:53 am 01:53 Clear 59 15 45 7.2 60 60 Calm 29.89 1012 10 16 0.00 0.00
2:53 am 02:53 Mostly Clear 57 13.9 44 6.7 62 62 Calm 29.89 1012 10 16 0.00 0.00
3:53 am 03:53 Mostly Cloudy 56 13.3 44 6.7 65 65 Calm 29.90 1012 10 16 0.00 0.00
4:53 am 04:53 Mostly Clear 57 13.9 43 6.1 60 60 Calm 29.90 1013 10 16 0.00 0.00
5:53 am 05:53 Mostly Cloudy 54 12.2 44 6.7 69 69 Calm 29.92 1013 10 16 0.00 0.00
6:53 am 06:53 Partly Cloudy 54 12.2 42 5.6 64 64 Calm 29.93 1014 10 16 0.00 0.00
7:53 am 07:53 Sunny 56 13.3 43 6.1 62 62 Calm 29.96 1014 10 16 0.00 0.00
8:53 am 08:53 Sunny 65 18.3 45 7.2 49 49 Calm 29.95 1014 10 16 0.00 0.00
9:53 am 09:53 Sunny 75 23.9 47 8.3 37 37 N 14 22 29.96 1015 10 16 0.00 0.00
10:53 am 10:53 Sunny 77 25 46 7.8 33 33 N 12 19 29.96 1015 10 16 0.00 0.00
11:53 am 11:53 Sunny 79 26.1 43 6.1 28 28 NNW 13 20 29.95 1014 10 16 0.00 0.00
12:53 pm 12:53 Sunny 82 27.8 41 5 23 23 N 14 22 29.93 1014 10 16 0.00 0.00
1:53 pm 13:53 Sunny 83 28.3 33 0.6 17 17 N 14 22 29.91 1013 10 16 0.00 0.00
2:53 pm 14:53 Sunny 85 29.4 32 0 15 15 N 12 19 29.88 1012 10 16 0.00 0.00
3:53 pm 15:53 Sunny 86 30 34 1.1 15 15 N 5 7 29.88 1012 10 16 0.00 0.00
4:53 pm 16:53 Sunny 86 30 33 0.6 15 15 NNW 3 6 29.86 1011 10 16 0.00 0.00
5:53 pm 17:53 Sunny 85 29.4 34 1.1 16 16 N 7 11 29.86 1011 10 16 0.00 0.00
6:53 pm 18:53 Clear 81 27.2 38 3.3 21 21 NW 10 17 29.88 1012 10 16 0.00 0.00
7:53 pm 19:53 Clear 78 25.6 41 5 27 27 NNW 12 19 29.90 1013 10 16 0.00 0.00
8:53 pm 20:53 Clear 76 24.4 29 -1.7 18 18 N 8 13 29.93 1014 10 16 0.00 0.00
9:53 pm 21:53 Clear 75 23.9 34 1.1 22 22 N 14 22 29.95 1014 10 16 0.00 0.00
10:53 pm 22:53 Clear 72 22.2 36 2.2 27 27 N 7 11 29.96 1014 10 16 0.00 0.00
11:53 pm 23:53 Clear 68 20 36 2.2 31 31 NW 7 11 29.96 1014 10 16 0.00 0.00

Powered by AerisWeather